Location: Arran
(51.9410°N, 101.7372°W)
Time: 08:19:13
(UTC+00:00)

SWISSCUBE - Pass Details

Date: 19 May 2025
Orbit: 685 x 693 km, 98.4° (Epoch: 20 June)

Event Time Altitude Azimuth Distance (km) Brightness Sun altitude
Rises 05:14:53 0° 20° (NNE) 3,077 ? -15.7°
Reaches altitude 10° 05:17:15 10° 27° (NNE) 2,157 ? -15.8°
Maximum altitude 05:21:43 41° 98° (E) 1,004 ? -16.0°
Enters shadow 05:23:40 28° 148° (SSE) 1,305 ? -16.1°
